Date String (YYYY-MM-DD hh:mm:ss) UTC,Instrument flags,absolute air pressure of the measurement (hPa),sample flow rate (lpm),inlet stack bypass flow (lpm),air temperature of the measurement (°C),ambient temperature measured by the external sensor (°C),aerosol sample conditioner tube jacket temperature (°C),OPC LED temperature (°C),internal box temperature (°C),relative humidity of the measurement (%),span deviation,mass concentration of particles derived from Lorenz-Mie calculation of OPC scattering (μg/m³),mass concentration of particles derived from Lorenz-Mie calculation of OPC scattering (μg/m³),mass concentration of particles derived from Lorenz-Mie calculation of OPC scattering (μg/m³)
DateTimeUTC,F1_M11,P_M11,Q1_M11,Q2_M11,T1_M11,T2_M11,T3_M11,T4_M11,T5_M11,U1_M11,ZSPAN_M11,X0_M11,X2_M11,X1_M11
2024-05-24 17:00:00,SystemResetWarning,0826.2,4.99,000.00,024.4,023.6,000.0,033.1,026.4,013.6,0000.0,0013.60,0002.92,0001.46
2024-05-24 17:01:00,SystemResetWarning,0826.2,4.99,000.00,024.4,023.7,000.0,033.1,026.4,012.9,0000.0,0012.89,0002.92,0001.46
2024-05-24 17:02:00,SystemResetWarning,0826.1,5.01,000.00,024.5,023.8,000.0,033.1,026.5,013.1,0000.0,0012.78,0002.94,0001.47
2024-05-24 17:03:00,SystemResetWarning,0826.1,5.01,000.00,024.5,023.9,000.0,033.1,026.5,014.0,0000.0,0012.37,0002.98,0001.47
2024-05-24 17:04:00,SystemResetWarning,0826.1,4.99,000.00,024.6,024.0,000.0,033.1,026.6,014.4,0000.0,0011.60,0002.97,0001.46
2024-05-24 17:05:00,SystemResetWarning,0826.1,4.99,000.00,024.6,024.0,000.0,033.1,026.6,014.6,0000.0,0011.70,0002.92,0001.44
2024-05-24 17:06:00,SystemResetWarning,0826.1,4.99,000.00,024.6,024.0,000.0,033.1,026.6,013.4,0000.0,0012.05,0002.90,0001.42
2024-05-24 17:07:00,SystemResetWarning,0826.1,5.02,000.00,024.7,024.1,000.0,033.1,026.6,013.3,0000.0,0012.95,0002.88,0001.42
2024-05-24 17:08:00,SystemResetWarning,0826.1,5.00,000.00,024.7,024.1,000.0,033.1,026.6,012.9,0000.0,0014.12,0002.93,0001.43
2024-05-24 17:09:00,SystemResetWarning,0826.0,4.99,000.00,024.7,024.1,000.0,033.1,026.6,013.7,0000.0,0014.76,0002.98,0001.46
2024-05-24 17:10:00,SystemResetWarning,0826.0,5.01,000.00,024.7,024.1,000.0,033.2,026.7,013.6,0000.0,0014.47,0003.04,0001.50
2024-05-24 17:11:00,SystemResetWarning,0826.0,5.00,000.00,024.8,024.2,000.0,033.2,026.7,013.7,0000.0,0014.05,0002.98,0001.50
2024-05-24 17:12:00,SystemResetWarning,0826.0,5.01,000.00,024.8,024.2,000.0,033.2,026.7,013.9,0000.0,0014.25,0002.97,0001.49
2024-05-24 17:13:00,SystemResetWarning,0826.0,5.01,000.00,024.8,024.2,000.0,033.2,026.8,013.7,0000.0,0014.27,0003.02,0001.46
2024-05-24 17:14:00,SystemResetWarning,0826.0,5.00,000.00,024.9,024.3,000.0,033.2,026.8,013.9,0000.0,0014.17,0003.07,0001.46
2024-05-24 17:15:00,SystemResetWarning,0826.0,4.99,000.00,024.9,024.3,000.0,033.2,026.8,013.1,0000.0,0014.21,0003.09,0001.49
2024-05-24 17:16:00,SystemResetWarning,0825.9,5.00,000.00,024.9,024.3,000.0,033.2,026.8,013.2,0000.0,0013.64,0003.12,0001.54
2024-05-24 17:17:00,SystemResetWarning,0825.9,5.02,000.00,024.9,024.3,000.0,033.3,026.8,013.8,0000.0,0013.41,0003.14,0001.59
2024-05-24 17:18:00,SystemResetWarning,0825.9,4.99,000.00,025.0,024.4,000.0,033.3,026.9,013.8,0000.0,0012.64,0003.21,0001.61
2024-05-24 17:19:00,SystemResetWarning,0825.9,4.99,000.00,025.0,024.4,000.0,033.3,026.9,014.0,0000.0,0011.76,0003.20,0001.63
2024-05-24 17:20:00,SystemResetWarning,0825.9,4.99,000.00,025.0,024.4,000.0,033.3,026.9,014.4,0000.0,0013.42,0003.19,0001.63
2024-05-24 17:21:00,SystemResetWarning,0826.0,5.00,000.00,025.1,024.5,000.0,033.3,026.9,014.2,0000.0,0014.68,0003.21,0001.63
2024-05-24 17:22:00,SystemResetWarning,0826.0,5.01,000.00,025.1,024.5,000.0,033.3,027.0,013.2,0000.0,0017.20,0003.26,0001.68
2024-05-24 17:23:00,SystemResetWarning,0825.9,5.01,000.00,025.1,024.5,000.0,033.4,027.0,012.9,0000.0,0018.29,0003.31,0001.73
2024-05-24 17:24:00,SystemResetWarning,0825.9,4.99,000.00,025.1,024.5,000.0,033.4,027.0,012.8,0000.0,0018.28,0003.31,0001.77
2024-05-24 17:25:00,SystemResetWarning,0825.9,4.99,000.00,025.1,024.5,000.0,033.4,027.0,013.0,0000.0,0017.43,0003.25,0001.78
2024-05-24 17:26:00,SystemResetWarning,0825.9,4.99,000.00,025.2,024.5,000.0,033.4,027.0,013.1,0000.0,0017.47,0003.23,0001.78
2024-05-24 17:27:00,SystemResetWarning,0825.9,5.02,000.00,025.2,024.6,000.0,033.4,027.0,012.7,0000.0,0018.72,0003.24,0001.78
2024-05-24 17:28:00,SystemResetWarning,0825.9,4.98,000.00,025.2,024.6,000.0,033.4,027.1,012.8,0000.0,0019.95,0003.24,0001.79
2024-05-24 17:29:00,SystemResetWarning,0825.9,5.00,000.00,025.2,024.6,000.0,033.5,027.1,013.5,0000.0,0020.69,0003.24,0001.79
2024-05-24 17:30:00,SystemResetWarning,0825.9,5.01,000.00,025.3,024.6,000.0,033.5,027.1,013.0,0000.0,0021.49,0003.23,0001.80
2024-05-24 17:31:00,SystemResetWarning,0825.9,5.00,000.00,025.3,024.6,000.0,033.5,027.1,012.9,0000.0,0019.83,0003.26,0001.81
2024-05-24 17:32:00,SystemResetWarning,0825.9,4.99,000.00,025.3,024.6,000.0,033.5,027.1,012.5,0000.0,0018.35,0003.25,0001.82
2024-05-24 17:33:00,SystemResetWarning,0825.9,4.99,000.00,025.3,024.7,000.0,033.5,027.1,012.8,0000.0,0016.86,0003.25,0001.84
2024-05-24 17:34:00,SystemResetWarning,0825.9,5.00,000.00,025.3,024.7,000.0,033.5,027.2,013.1,0000.0,0015.72,0003.20,0001.81
2024-05-24 17:35:00,SystemResetWarning,0825.9,5.01,000.00,025.3,024.7,000.0,033.6,027.2,013.2,0000.0,0015.80,0003.20,0001.81
2024-05-24 17:36:00,SystemResetWarning,0825.9,5.01,000.00,025.4,024.7,000.0,033.6,027.2,012.6,0000.0,0015.30,0003.25,0001.81
2024-05-24 17:37:00,SystemResetWarning,0825.9,5.00,000.00,025.4,024.7,000.0,033.6,027.2,013.1,0000.0,0015.34,0003.28,0001.82
2024-05-24 17:38:00,SystemResetWarning,0825.9,4.99,000.00,025.4,024.7,000.0,033.6,027.2,012.9,0000.0,0015.85,0003.25,0001.82
2024-05-24 17:39:00,SystemResetWarning,0825.9,5.00,000.00,025.4,024.8,000.0,033.6,027.2,013.2,0000.0,0015.35,0003.26,0001.83
2024-05-24 17:40:00,SystemResetWarning,0825.9,5.00,000.00,025.4,024.8,000.0,033.6,027.3,013.0,0000.0,0014.49,0003.26,0001.85
2024-05-24 17:41:00,SystemResetWarning,0825.9,5.00,000.00,025.5,024.8,000.0,033.7,027.3,012.8,0000.0,0013.41,0003.26,0001.85
2024-05-24 17:42:00,SystemResetWarning,0825.9,5.01,000.00,025.5,024.8,000.0,033.7,027.3,013.6,0000.0,0014.28,0003.23,0001.85
2024-05-24 17:43:00,SystemResetWarning,0825.9,5.00,000.00,025.5,024.8,000.0,033.7,027.3,013.1,0000.0,0014.71,0003.26,0001.85
2024-05-24 17:44:00,SystemResetWarning,0825.9,5.00,000.00,025.5,024.8,000.0,033.7,027.3,012.4,0000.0,0014.90,0003.27,0001.86
2024-05-24 17:45:00,SystemResetWarning,0825.9,5.00,000.00,025.5,024.8,000.0,033.7,027.3,012.7,0000.0,0016.53,0003.29,0001.88
2024-05-24 17:46:00,SystemResetWarning,0825.9,5.01,000.00,025.5,024.9,000.0,033.7,027.3,012.5,0000.0,0016.80,0003.30,0001.89
2024-05-24 17:47:00,SystemResetWarning,0825.9,5.00,000.00,025.5,024.9,000.0,033.8,027.3,012.9,0000.0,0017.68,0003.31,0001.89
2024-05-24 17:48:00,SystemResetWarning,0825.9,4.99,000.00,025.6,024.9,000.0,033.8,027.3,013.1,0000.0,0018.61,0003.29,0001.89
2024-05-24 17:49:00,SystemResetWarning,0825.9,4.99,000.00,025.6,024.9,000.0,033.8,027.4,013.4,0000.0,0017.27,0003.27,0001.89
2024-05-24 17:50:00,SystemResetWarning,0825.9,5.00,000.00,025.6,024.9,000.0,033.8,027.4,013.3,0000.0,0016.60,0003.28,0001.89
2024-05-24 17:51:00,SystemResetWarning,0825.8,4.99,000.00,025.6,024.9,000.0,033.8,027.4,013.2,0000.0,0016.28,0003.24,0001.87
2024-05-24 17:52:00,SystemResetWarning,0825.8,5.01,000.00,025.6,024.9,000.0,033.8,027.4,012.5,0000.0,0016.35,0003.24,0001.86
2024-05-24 17:53:00,SystemResetWarning,0825.8,5.01,000.00,025.6,024.9,000.0,033.8,027.4,012.8,0000.0,0016.01,0003.27,0001.87
2024-05-24 17:54:00,SystemResetWarning,0825.8,4.99,000.00,025.6,024.9,000.0,033.8,027.4,013.2,0000.0,0016.36,0003.25,0001.87
2024-05-24 17:55:00,SystemResetWarning,0825.7,4.99,000.00,025.6,025.0,000.0,033.8,027.5,013.1,0000.0,0016.46,0003.26,0001.85
2024-05-24 17:56:00,SystemResetWarning,0825.7,5.00,000.00,025.7,025.0,000.0,033.8,027.5,013.1,0000.0,0014.76,0003.26,0001.84
2024-05-24 17:57:00,SystemResetWarning,0825.8,5.01,000.00,025.7,025.0,000.0,033.8,027.5,013.3,0000.0,0013.49,0003.24,0001.83
2024-05-24 17:58:00,SystemResetWarning,0825.8,5.02,000.00,025.7,025.0,000.0,033.9,027.5,013.0,0000.0,0012.76,0003.24,0001.82
2024-05-24 17:59:00,SystemResetWarning,0825.8,5.00,000.00,025.7,025.0,000.0,033.9,027.5,013.3,0000.0,0012.42,0003.26,0001.80
